User: anonymous
Location: Oshawa
(43.9000°N, 78.8670°W)
Time: 09:34:31
(UTC-04:00)
Language:

Cosmos 1805 Rocket - Orbit

View from above orbital plane
View from above orbital plane
View from above satellite
View from above satellite

Ground track
Ground track

The orbit data is extracted from the following two-line orbital elements,

1 17192U 86097B   14293.48491241  .00000722  00000-0  85640-4 0  5862
2 17192 082.5054 087.3595 0018133 063.6667 351.5965 14.83032841504785
Epoch (UTC): 20 October 2014 11:38:16
Eccentricity: 0.0018133
inclination: 82.5054°
perigee height: 607 km
apogee height: 632 km
right ascension of ascending node: 87.3595°
argument of perigee: 63.6667°
revolutions per day: 14.83032841
mean anomaly at epoch: 351.5965°
orbit number at epoch: 50478

The dashed part of the orbit path shows where the satellite is in the earth's shadow,  

DLR